Tracking 20623 objects as of 3-Apr-2020
HD Live streaming from Space Station
objects crossing your sky now

LEMUR 2 LILLYJO

Track LEMUR 2 LILLYJO now!
10-day predictions
LEMUR 2 LILLYJO is classified as:


NORAD ID: 44396
Int'l Code: 2019-038L
Perigee: 518.0 km
Apogee: 553.6 km
Inclination: 97.5 °
Period: 95.2 minutes
Semi major axis: 6906 km
RCS: Unknown
Launch date: July 5, 2019
Source: United States (US)
Launch site: VOSTOCHNY COSMODROME (VOSTO)
aabbcc
Your satellite tracking list
Your tracking list is empty




NASA's NSSDC Master Catalog

Two Line Element Set (TLE):
1 44396U 19038L   20094.14138862  .00001749  00000-0  10360-3 0  9999
2 44396  97.5255  56.3971 0025729  29.5219 330.7458 15.12466277 41191
Source of the keplerian elements: AFSPC